カタログに戻る

STARLINK-32573

運用中通信VLEO
NORAD 61725·PAYLOAD·🇺🇸 United States

打ち上げ Oct 30, 2024 から Cape Canaveral Space Force Station

Loading…

次のパス (今後24時間)

TLE

最新Source: CelesTrak SupGP

元期: Sep 15, 2026, 03:30 UTC

1 61725C 24196U   26258.14631944  .00013773  00000+0  40691-3 0  2589
2 61725  53.1590 298.9339 0001447  85.6016  38.2588 15.34384519    19

AllMySatでSTARLINK-32573をリアルタイム追跡

Download on the App Store